Погода в Парнасе

Греция     38°38′40″N   22°31′52″E
темп.,
°C
ветер,
м/с
пор.,
м/с
влажн.,
%
обл.,
%
осадки,
мм/ч
давл.,
гПа
погр.,
м
22 января, сб
сб2223:00+5св2296100 1.8 1017167
02:00+1в2399100 12.2 1018201
05:000св22100100 5.8 1018123
08:000ссв22100100 7.3 1018106
11:00−1ссв2399100 3.8 1020236
14:00−1с3394100 5.8 1019532
17:00−2сз24874 0.3 1020123
20:00−6юз337663 0.3 102225
23 января, вс
вс2323:00−6зюз3369100 0.0 102226
02:00−5зюз337169 0.0 102229
05:00−4зюз337359 0.0 102338
08:00−6з45760 0.0 102685
11:00−1ссз46610 0.0 10261004
14:000сз34540 0.0 1025988
17:00−1з11700 0.0 102310
20:00−6юз32740 0.0 102424
24 января, пн
пн2423:00−6юз32730 0.0 102420
02:00−7юз32730 0.0 102319
05:00−7зюз227676 0.0 102418
08:00−5зсз227999 0.0 1024115
11:00−3ссз2390100 0.5 1025486
14:00−2ссз446878 1.1 10241202
17:00−4сз3592100 0.6 1025367
20:00−4с3996100 4.1 1026835
25 января, вт
вт2523:00−5ссз4895100 2.8 1028780
02:00−5сз459587 3.9 1030267
05:00−8зсз458521 0.1 1030100
08:00−9з45812 0.1 103277
11:00−4сз44665 0.0 1030470
14:00−2ссз34595 0.0 1029691
17:00−4сз33741 0.0 1029117
20:00−9зюз33700 0.0 103133
26 января, ср
ср2623:00−8зюз33670 0.0 103033
02:00−8зюз33660 0.0 102933
05:00−8зюз33645 0.0 102729
08:00−9зюз33635 0.0 102832
11:00−1сз235299 0.0 1026301
14:00+1ссз235832 0.0 1025451
17:00−1ссз11751 0.0 102410
20:00−5зюз32801 0.0 102717